Карточка аэропорта USPP

Внимание!
Информация на этой странице в стадии наполнения.
Если вы не увидели какой-то информации, или заметили неточность - пожалуйста сообщите нам!
Спасибо!
Команда RU-STAFF
Название аэропортаБольшое Савино
Название аэропорта (англ.)Bolshoe Savino
Превышение404 ft. (123.1 m.)
Координаты57°55.866', 56°1.6019999999999'
Высота перехода1200m
Эшелон переходаQFE>749:FL60; 749>QFE>722:FL70; 722>QFE: FL80;
Коды ответчика5610-5617
Зона ОрВДЕкатеринбург РПИ (USSV)
Данные METARUSPP 161930Z 01002MPS CAVOK 15/09 Q1025 R21/090060 NOSIG RMK QFE758
Проноз погоды (TAF)USPP 161656Z 1618/1718 36003G09MPS 6000 SCT016 BECMG 1703/1704 9999 BKN030
NOTAMshow/hide NOTAM
AWOS   TABLE

Информация о ВПП

ВПП Длина ВПП (м.) Покрытие Курс ВПП Частота ILS
033204Железобетон31 
213204Железобетон211109.9

Диспетчерские позиции

Позывной Наименование органа УВД Частота
USPP_R_APPПермь-Круг121.700
USPP_TWRПермь-Старт124.000
USPP_APPПермь-Подход127.100



Спутниковое изображение